Weather in Konduki

Russia / Tula Oblast     53°50′48″N   38°21′15″E
temp.,
°C
wind,
m/s
gust,
m/s
humid.,
%
clouds,
%
prec.,
mm/h
press.,
hPa
HPBL,
m
14 may, fri
fri1400:00+9se33940 0.0 101738
03:00+9ese2292100 0.0 101721
06:00+11e2495100 0.0 101679
09:00+16ese468091 0.0 1016389
12:00+20se5770100 0.0 1015921
15:00+22se81367100 0.3 10131558
18:00+20sse7147268 1.3 1011750
21:00+15sse41092100 1.3 1011192
15 may, sat
sat1500:00+14sse239380 0.8 101129
03:00+14sw1196100 6.4 101013
06:00+15se359767 1.9 1010149
09:00+19ssw4684100 1.9 1010441
12:00+20ssw566628 0.0 10101015
15:00+22ssw610585 0.0 10101656
18:00+20ssw6106728 0.1 1011735
21:00+15ssw498486 0.1 1012206
16 may, sun
sun1600:00+13ssw410898 0.0 1012209
03:00+12ssw37945 0.0 1013142
06:00+13ssw37915 0.0 1014179
09:00+17ssw4674100 0.0 1015461
12:00+20ssw46614 0.0 10151119
15:00+22ssw465214 0.1 10142031
18:00+21sw236742 0.0 1013126
21:00+17ne117493 0.0 101411
17 may, mon
mon1700:00+15ne238189 0.0 101426
03:00+14ene358893 0.0 101487
06:00+15ene499268 0.0 1013209
09:00+20e61072100 0.0 1012459
12:00+24se6857100 0.0 1011821
15:00+25se695811 0.0 10101143
18:00+23ese6116699 0.0 1009539
21:00+19ese5157991 0.0 1009395
18 may, tue
tue1800:00+18se616745 0.0 1009397
03:00+15se41085100 0.0 1009196
06:00+15sse268572 0.0 1009161
09:00+20se4567100 0.0 1008394
12:00+22sse7964100 0.0 1008967
15:00+19ssw798599 1.9 1009809
18:00+18sw378262 3.5 1010741
21:00+16sw229199 3.6 101130